Montreal/Mirabel, Ontario

11:53 PM EST on February 21, 2017 (GMT -0500)
Montreal International (Mirabel)

Weather History for CYMX - November, 2014

Change the Weather History Date:

Sunday, November 30, 2014

  Actual Average Record
Temperature  
Mean Temperature 32 °F -  
Max Temperature 37 °F 32 °F 59 °F (2006)
Min Temperature 28 °F 20 °F -4 °F (2013)
Degree Days  
Heating Degree Days 32    
Moisture  
Dew Point 28 °F    
Average Humidity 81    
Maximum Humidity 100    
Minimum Humidity 64    
Precipitation  
Precipitation 0.00 in - - ()
Sea Level Pressure  
Sea Level Pressure 29.86 in    
Wind  
Wind Speed 3 mph ()    
Max Wind Speed 7 mph    
Max Gust Speed -    
Visibility 11.6 miles    
Events Rain    
Averages and records for this station are not official NWS values.
T = Trace of Precipitation, MM = Missing Value Source: Averaged Metar Reports

Daily Weather History Graph

Daily Weather History Graph

Search for Another Location

Airport or City:

Trip Planner

Search our weather history database for the weather conditions in past years. The results will help you decide how hot, cold, wet, or windy it might be!

Date:

Astronomy

Nov. 30, 2014 Rise Set
Actual Time 7:15 AM EST 4:14 PM EST
Civil Twilight 6:41 AM EST 4:47 PM EST
Nautical Twilight 6:04 AM EST 5:24 PM EST
Astronomical Twilight 5:28 AM EST 6:00 PM EST
Moon 1:00 PM EST (11/30) 12:23 AM EST (11/30)
Length of Visible Light 10h 05m
Length of Day
8h 58m
Waxing Gibbous, 64% of the Moon is Illuminated
Nov 30
Waxing Gibbous
Dec 6
Full
Dec 14
Last Quarter
Dec 21
New
Dec 28
First Quarter

Hourly Weather History & Observations

Time (EST) Temp. Windchill Dew Point Humidity Pressure Visibility Wind Dir Wind Speed Gust Speed Precip Events Conditions
12:00 AM 28.4 °F 23.3 °F 17.6 °F 64% 29.98 in 25.0 mi SE 4.6 mph - N/A   Overcast
1:00 AM 28.4 °F 23.3 °F 17.6 °F 64% 29.96 in 25.0 mi SE 4.6 mph - N/A   Overcast
2:00 AM 28.4 °F 22.2 °F 19.4 °F 69% 29.96 in 25.0 mi ESE 5.8 mph - N/A   Overcast
3:00 AM 30.2 °F 24.3 °F 19.4 °F 64% 29.94 in 25.0 mi SE 5.8 mph - N/A   Overcast
4:00 AM 30.2 °F - 21.2 °F 69% 29.93 in 15.0 mi East 2.3 mph - N/A   Overcast
5:00 AM 30.2 °F 26.7 °F 23.0 °F 75% 29.91 in 15.0 mi ENE 3.5 mph - N/A   Overcast
6:00 AM 30.2 °F 26.7 °F 23.0 °F 75% 29.90 in 25.0 mi NNE 3.5 mph - N/A   Overcast
7:00 AM 30.2 °F 26.7 °F 23.0 °F 75% 29.89 in 15.0 mi NNE 3.5 mph - N/A   Overcast
8:00 AM 30.2 °F 26.7 °F 24.8 °F 80% 29.89 in 15.0 mi NNE 3.5 mph - N/A   Overcast
9:00 AM 30.2 °F 24.3 °F 24.8 °F 80% 29.89 in 15.0 mi NNE 5.8 mph - N/A   Overcast
10:00 AM 32.0 °F 27.5 °F 24.8 °F 75% 29.88 in 15.0 mi NE 4.6 mph - N/A   Overcast
11:00 AM 33.8 °F 29.6 °F 26.6 °F 75% 29.84 in 15.0 mi NNE 4.6 mph - N/A   Overcast
12:00 PM 33.8 °F 29.6 °F 26.6 °F 75% 29.84 in 15.0 mi NNE 4.6 mph - N/A   Overcast
1:00 PM 35.6 °F 31.7 °F 28.4 °F 75% 29.82 in 12.0 mi NE 4.6 mph - N/A   Overcast
2:00 PM 35.6 °F 31.7 °F 28.4 °F 75% 29.81 in 15.0 mi NNE 4.6 mph - N/A   Overcast
2:08 PM 35.6 °F 32.8 °F 28.4 °F 75% 29.81 in 12.0 mi NNE 3.5 mph - N/A Rain Light Rain Showers
3:00 PM 35.6 °F 29.9 °F 30.2 °F 81% 29.81 in 15.0 mi NNE 6.9 mph - N/A   Overcast
4:00 PM 35.6 °F 30.7 °F 30.2 °F 81% 29.81 in 12.0 mi NNE 5.8 mph - N/A Rain Light Rain Showers
4:30 PM 35.6 °F - 30.2 °F 81% 29.82 in 15.0 mi Variable 2.3 mph - N/A   Overcast
5:00 PM 35.6 °F - 32.0 °F 87% 29.82 in 15.0 mi Calm Calm - N/A Rain Light Rain Showers
6:00 PM 35.6 °F - 33.8 °F 93% 29.81 in 15.0 mi North 2.3 mph - N/A Rain Light Rain Showers
7:00 PM 35.6 °F - 33.8 °F 93% 29.82 in 10.0 mi Calm Calm - N/A Rain Light Rain Showers
8:00 PM 35.6 °F - 35.6 °F 100% 29.82 in 10.0 mi Variable 2.3 mph - N/A Rain Light Rain Showers
8:26 PM 35.6 °F - 35.6 °F 100% 29.81 in 6.0 mi Calm Calm - N/A   Light Drizzle
9:00 PM 35.6 °F - 35.6 °F 100% 29.80 in 4.0 mi Calm Calm - N/A Rain Light Rain
10:00 PM 37.4 °F - 35.6 °F 93% 29.81 in 2.0 mi Calm Calm - N/A Rain Light Rain
10:43 PM 37.4 °F - 35.6 °F 93% 29.81 in 2.0 mi Calm Calm - N/A Rain Light Rain
11:00 PM 37.4 °F - 35.6 °F 93% 29.82 in 2.0 mi West 2.3 mph - N/A Rain Light Rain